Weather History for West Palm Beach, FL

Change the Weather History Date:

Wednesday, September 25, 2013

  Actual Average Record
Temperature  
Mean Temperature 82 °F 81 °F  
Max Temperature 90 °F 88 °F 95 °F (1919)
Min Temperature 73 °F 75 °F 64 °F (1903)
Degree Days  
Heating Degree Days 0 0  
Month to date heating degree days 0 0  
Since 1 July heating degree days 0 0  
Cooling Degree Days 17 16  
Month to date cooling degree days 420 421  
Year to date cooling degree days 3291 3127  
Growing Degree Days 32 (Base 50)    
Moisture  
Dew Point 72 °F    
Average Humidity 72    
Maximum Humidity 88    
Minimum Humidity 55    
Precipitation  
Precipitation T in 0.27 in 8.79 in (2004)
Month to date precipitation 8.33 7.08  
Year to date precipitation 55.95 47.80  
Snow  
Snow 0.00 in - - ()
Month to date snowfall 0.0  
Since 1 July snowfall 0.0  
Since 1 September snowfall 0.0  
Snow Depth 0.00 in    
Sea Level Pressure  
Sea Level Pressure 29.86 in    
Wind  
Wind Speed 7 mph (WSW)    
Max Wind Speed 22 mph    
Max Gust Speed 28 mph    
Visibility 10 miles    
Events Rain    
T = Trace of Precipitation, MM = Missing Value Source: NWS Daily Summary

Daily Weather History Graph

Daily Weather History Graph

Search for Another Location

Airport:

Trip Planner

Search our weather history database for the weather conditions in past years. The results will help you decide how hot, cold, wet, or windy it might be!

Date:

Astronomy

Sep. 25, 2013 Rise Set
Actual Time 7:10 AM EDT 7:13 PM EDT
Civil Twilight 6:47 AM EDT 7:36 PM EDT
Nautical Twilight 6:20 AM EDT 8:03 PM EDT
Astronomical Twilight 5:53 AM EDT 8:30 PM EDT
Moon 11:46 PM EDT (9/25) 12:46 PM EDT (9/25)
Length of Visible Light 12h 49m
Length of Day
12h 02m
Waning Gibbous, 64% of the Moon is Illuminated
Sep 25
Waning Gibbous
Sep 26
Last Quarter
Oct 4
New
Oct 11
First Quarter
Oct 18
Full

Hourly Weather History & Observations

Time (EDT) Temp. Heat Index Dew Point Humidity Pressure Visibility Wind Dir Wind Speed Gust Speed Precip Events Conditions
12:53 AM 76.5 °F - 69.8 °F 80% 29.88 in 10.0 mi SSW 4.6 mph - N/A   Mostly Cloudy
1:53 AM 76.3 °F - 69.8 °F 80% 29.86 in 10.0 mi SW 5.8 mph - N/A   Mostly Cloudy
2:53 AM 75.7 °F - 70.0 °F 82% 29.85 in 10.0 mi WSW 4.6 mph - N/A   Scattered Clouds
3:53 AM 75.6 °F - 70.0 °F 83% 29.84 in 10.0 mi Calm Calm - N/A   Scattered Clouds
4:53 AM 76.1 °F - 71.1 °F 84% 29.84 in 10.0 mi Calm Calm - N/A   Scattered Clouds
5:53 AM 75.2 °F - 70.5 °F 85% 29.85 in 10.0 mi Calm Calm - N/A   Scattered Clouds
6:53 AM 75.9 °F - 71.6 °F 86% 29.86 in 10.0 mi Calm Calm - N/A   Mostly Cloudy
7:53 AM 77.0 °F - 73.0 °F 88% 29.86 in 10.0 mi Calm Calm - N/A   Mostly Cloudy
8:46 AM 78.8 °F - 73.4 °F 83% 29.87 in 10.0 mi WSW 4.6 mph - N/A   Mostly Cloudy
8:53 AM 79.2 °F - 72.0 °F 78% 29.87 in 10.0 mi WSW 4.6 mph - N/A   Mostly Cloudy
9:14 AM 78.8 °F - 73.4 °F 83% 29.88 in 10.0 mi West 8.1 mph - N/A   Mostly Cloudy
9:49 AM 82.4 °F 89.5 °F 75.2 °F 79% 29.88 in 10.0 mi West 8.1 mph - N/A   Mostly Cloudy
9:53 AM 82.4 °F 89.8 °F 75.6 °F 80% 29.88 in 10.0 mi West 9.2 mph - N/A   Mostly Cloudy
9:57 AM 82.4 °F 90.9 °F 77.0 °F 84% 29.89 in 10.0 mi West 11.5 mph - N/A   Mostly Cloudy
10:26 AM 84.2 °F 92.3 °F 75.2 °F 74% 29.89 in 10.0 mi West 12.7 mph - N/A   Mostly Cloudy
10:53 AM 85.1 °F 93.7 °F 75.0 °F 72% 29.89 in 10.0 mi West 9.2 mph 18.4 mph N/A   Mostly Cloudy
11:53 AM 86.2 °F 95.5 °F 75.4 °F 70% 29.88 in 10.0 mi West 13.8 mph 18.4 mph N/A   Mostly Cloudy
12:44 PM 87.8 °F 95.6 °F 73.4 °F 62% 29.88 in 10.0 mi WNW 16.1 mph 25.3 mph N/A   Overcast
12:53 PM 84.7 °F 91.0 °F 72.7 °F 67% 29.87 in 10.0 mi West 21.9 mph 25.3 mph 0.00 in Rain Light Rain
1:02 PM 84.2 °F 90.9 °F 73.4 °F 70% 29.87 in 10.0 mi WNW 17.3 mph 25.3 mph 0.00 in   Mostly Cloudy
1:53 PM 86.7 °F 94.1 °F 73.0 °F 64% 29.85 in 10.0 mi WNW 12.7 mph - 0.00 in   Mostly Cloudy
2:53 PM 89.6 °F 97.2 °F 72.3 °F 57% 29.82 in 10.0 mi WNW 13.8 mph 24.2 mph N/A   Mostly Cloudy
3:53 PM 87.1 °F 91.3 °F 69.1 °F 55% 29.79 in 10.0 mi SW 15.0 mph - N/A   Mostly Cloudy
4:53 PM 86.0 °F 89.4 °F 68.0 °F 55% 29.82 in 10.0 mi WSW 12.7 mph - N/A   Mostly Cloudy
5:53 PM 86.0 °F 90.7 °F 70.0 °F 59% 29.83 in 10.0 mi WSW 11.5 mph - N/A   Mostly Cloudy
6:53 PM 84.0 °F 89.0 °F 71.1 °F 65% 29.82 in 10.0 mi SW 8.1 mph - N/A   Mostly Cloudy
7:53 PM 82.9 °F 87.5 °F 71.1 °F 67% 29.83 in 10.0 mi WSW 6.9 mph - N/A   Scattered Clouds
8:53 PM 81.0 °F 85.2 °F 72.0 °F 74% 29.84 in 10.0 mi West 6.9 mph - N/A   Partly Cloudy
9:53 PM 80.1 °F 83.8 °F 72.0 °F 76% 29.85 in 10.0 mi WSW 5.8 mph - N/A   Partly Cloudy
10:53 PM 79.0 °F - 72.0 °F 79% 29.85 in 10.0 mi SW 3.5 mph - N/A   Scattered Clouds
11:53 PM 79.0 °F - 73.0 °F 82% 29.84 in 10.0 mi Calm Calm - N/A   Mostly Cloudy